Location: Abundant Grace Fellowship
(35.0349°N, 90.0924°W)
Time: 23:22:59
(UTC+00:00)

Cosmos 1862 Rocket - Pass Details

Date: 18 January 2026
Orbit: 596 x 627 km, 82.5° (Epoch: 13 February)

Event Time Altitude Azimuth Distance (km) Brightness Sun altitude
Rises 00:42:04 0° 179° (S) 2,897 7.2 -17.8°
Reaches altitude 10° 00:44:18 10° 177° (S) 1,993 6.3 -18.3°
Maximum altitude 00:48:41 68° 95° (E) 672 3.4 -19.2°
Enters shadow 00:51:28 22° 16° (NNE) 1,366 5.0 -19.7°
